STARLINK-11511, 62468

Orbit data source: Space-Track

STARLINK-11511, 62468 is a payload satellite owned by SpaceX/Seattle (US) in LEO that was launched on Tue, 31 Dec 2024 UTC via an FALCON 9 launch vehicle from the Air Force Eastern Test Range (AFETR). Payload-class satellites include a variety of spacecraft equipped with specific instruments for various scientific and technological missions. These include communications satellites like Starlink; space stations such as the ISS; scientific satellites like the Hubble; Earth observation satellites from companies like Planet Labs, Umbra, and HawkEye 360; GPS; miniature CubeSats for education and research; and military/defense satellites.

Loading next visibility...
Identifier
62468, 2024-254G
Orbit
LEO
Country
Flag of USUS
Related business
Manufacturer
SpaceX/Seattle
Mission
Operational Commercial Communications
Bus & Motor
STARLINK V2MD, Unknown motor
Mass
960 kg wet, ~910 kg dry
Launch date (UTC)
2024-12-31 (9 months ago)
Launch vehicle
FALCON 9
Launch site
Air Force Eastern Test Range (AFETR)
Object type
Payload
Rocket body
Debris
Shape & HBR
Box + 2 Pan, 14.5 m
Radar Cross Section
36.964 m², Large (>1 m²)

Expand to show TLE details & history
Last TLE update: 16 hours ago

TLE from 16 hours ago
0 STARLINK-11511
1 62468U 24254G   25260.18777988  .00246115  00000-0  18603-2 0  9992
2 62468  43.0017 188.8144 0001824 283.6725  76.3940 15.70903124 42114
Epoch: 2025-09-17T04:30Z
TLE epoch observation values (Epoch: 2025-09-17T04:30:24.181Z)
Latitude
0.00001°
Longitude
124.84633°
Altitude
355.797 km
Speed
7.698 km/s
True Right ascension
12h 35m 15s
True Declination
0° 00' 00"
Sunlit
Object was in daylight at epoch
Visualization orbit readout
Latitude
Unknown
Longitude
Unknown
Altitude
Unknown
Speed
Unknown
Apparent Right ascension
Unknown
Apparent Declination
Unknown
Sunlit
N/A
Visualization observer readout
Local Sidereal Time
13:21:44
Azimuth
Unknown
Elevation
Unknown
Doppler factor
Unknown
Orbital elements
Apogee altitude
359.525 km
Perigee altitude
357.067 km
Semi-major axis
6,736.433 km
Eccentricity
0.00018
Inclination
43.0017°
RAAN
188.8144°
Arg. of periapsis
283.6725°
True anomaly
76.41432°
Mean anomaly
76.394°
Eccentric anomaly
76.40416°
Mean motion
3.92553 °/min
Orbital period
91.71 mins
BSTAR
0.0018603
Loading maneuver chart data...
Computing Atmospheric mass density...
Loading historical data...
Loading historical data...
Loading historical data...
Loading historical data...
Loading historical data...
Loading historical data...
Loading historical data...

Documentation

Showing up to 5 results
|